Find Hainan-1 01

NORAD ID: 51825 Int'l Des: NNA 2022-019 Owner: SANYZ Country: CN operational
LEOCIRCULARRETROGRADESSO

Live Position

Loading 3D Globe...

About Hainan-1 01

Description loading...

Upcoming Passes

Passes for default location (London). Set your location on the main map for personalized predictions.

Altitude History

Loading altitude history...

Two-Line Element Set

1 51825U 22019B 26104.54781560 .00041809 00000-0 40185-3 0 9997
2 51825 97.3496 193.3819 0004445 358.1634 1.9609 15.66469490229774
Epoch: Apr 14, 2026 • Age: 4 hours

Current Status

Altitude 391.1 km
Velocity 7.67 km/s
Sub-Earth Point -52.49°S, 97.03°W
Launch Date Feb 27, 2022
Age 4.1 years
Type other

Technical Details

Classification Payload
Mass 55.00 kg
Dry Mass 55.00 kg
Total Mass 55.00 kg
Length 0.50 m
Diameter 0.50 m
Span 2.00 m
Shape Box + 2 pan
Manufacturer DFHS
Bus Type Hainan-1
Phase Status In Orbit
Owner/State SANYZ/CN

Most Searched